User: anonymous   Login
Location: Unspecified
(0.0000°N, 0.0000°E)
Time: 18:54:30
(UTC+00:00)
Language:

OBJECT BE - Orbit

View from above orbital plane
View from above orbital plane
View from above satellite
View from above satellite

Ground track
Ground track

The orbit data is extracted from the following two-line orbital elements,

1 42000U 17008BE  17084.80011320 +.00001760 +00000-0 +80281-4 0  9994
2 42000 097.5063 146.3661 0010228 135.6482 224.5568 15.21933345005178
Epoch (UTC): 25 March 2017 19:12:09
Eccentricity: 0.0010228
inclination: 97.5063°
perigee height: 493 km
apogee height: 507 km
right ascension of ascending node: 146.3661°
argument of perigee: 135.6482°
revolutions per day: 15.21933345
mean anomaly at epoch: 224.5568°
orbit number at epoch: 517

The dashed part of the orbit path shows where the satellite is in the earth's shadow,  

DLR